CCA936 EDDF-ZSPD

Flight info

Callsign CCA936
Flight time N/A
Altitude 37000
Route TOBAK8F/25C TOBAK N858 FEDZA Y172 MAG DCT BINKA N746 GORPI DCT KOLJA DCT EVONA DCT NETNA DCT TUKMA/N0484F390 P989 MEGAS/K0895F390 P989 OBIBA P997 AKUGI T635 SADER T580 ADMUR G117 XV R229 BA R104 NALED/K0898F410 R104 ABK A308 TR P982 DARNO/K0907S1250 A575 UDA Y345 POLHO W33 NUVPU W52 MUDAM/K0883S1220 G212 SOTMU W98 ELKUR W40 DOXAB/K0895S1250 W40 YQG/K0896S1220 W142 DALIM/K0898S1250 A593 DPX A470 DALNU W166 ZJ W167 SASAN SAS81A
Aircraft A359/H-SDE2E3GHIJ1J3J4J5LM1ORWXY/LB1D1

Departure

Time 2026-05-04 18:24
Airport Frankfurt Main Airport (EDDF)

Arrival

Time N/A
Airport Shanghai Pudong International Airport (ZSPD)
Time Latitude Longitude Altitude Speed Heading
2026-05-04 17:36 50.04763 8.57741 378 ft 0 kts 271°
2026-05-04 18:09 50.04763 8.57746 378 ft 2 kts 271°
2026-05-04 18:09 50.04764 8.57793 378 ft 2 kts 266°
2026-05-04 18:10 50.04765 8.57816 378 ft 2 kts 265°
2026-05-04 18:10 50.04767 8.57839 378 ft 2 kts 263°
2026-05-04 18:10 50.04768 8.57862 379 ft 2 kts 262°
2026-05-04 18:10 50.04771 8.57885 379 ft 2 kts 260°
2026-05-04 18:11 50.04774 8.57908 380 ft 2 kts 258°
2026-05-04 18:11 50.04777 8.57930 380 ft 2 kts 256°
2026-05-04 18:11 50.04781 8.57953 381 ft 2 kts 255°
2026-05-04 18:11 50.04785 8.57975 381 ft 2 kts 253°
2026-05-04 18:12 50.04789 8.57997 382 ft 2 kts 251°
2026-05-04 18:12 50.04794 8.58017 382 ft 0 kts 250°
2026-05-04 18:18 50.04789 8.57997 382 ft 3 kts 249°
2026-05-04 18:19 50.04709 8.57964 380 ft 9 kts 164°
2026-05-04 18:19 50.04639 8.58000 379 ft 10 kts 160°
2026-05-04 18:19 50.04583 8.58049 379 ft 8 kts 124°
2026-05-04 18:20 50.04577 8.58145 381 ft 8 kts 85°
2026-05-04 18:20 50.04592 8.58234 381 ft 8 kts 72°
2026-05-04 18:20 50.04613 8.58327 382 ft 9 kts 69°
2026-05-04 18:20 50.04643 8.58441 378 ft 12 kts 69°
2026-05-04 18:21 50.04651 8.58534 375 ft 2 kts 112°
2026-05-04 18:21 50.04648 8.58542 374 ft 2 kts 120°
2026-05-04 18:21 50.04627 8.58568 373 ft 0 kts 154°
2026-05-04 18:21 50.04608 8.58581 372 ft 5 kts 156°
2026-05-04 18:22 50.04562 8.58609 370 ft 9 kts 160°
2026-05-04 18:22 50.04506 8.58617 369 ft 8 kts 209°
2026-05-04 18:22 50.04479 8.58555 371 ft 4 kts 249°
2026-05-04 18:22 50.04476 8.58540 372 ft 0 kts 249°
2026-05-04 18:23 50.04462 8.58485 374 ft 25 kts 249°
2026-05-04 18:23 50.04313 8.57857 373 ft 98 kts 250°
2026-05-04 18:24 50.03994 8.56523 358 ft 161 kts 250°
2026-05-04 18:24 50.03567 8.54773 798 ft 178 kts 252°
2026-05-04 18:24 50.03157 8.52968 1504 ft 181 kts 253°
2026-05-04 18:24 50.02767 8.51197 2369 ft 173 kts 261°
2026-05-04 18:25 50.02762 8.49385 2963 ft 167 kts 277°
2026-05-04 18:25 50.02905 8.47603 3428 ft 168 kts 278°
2026-05-04 18:25 50.03062 8.45790 3768 ft 178 kts 278°
2026-05-04 18:25 50.03231 8.43788 4077 ft 192 kts 278°
2026-05-04 18:26 50.03709 8.41795 4367 ft 208 kts 308°
2026-05-04 18:26 50.04834 8.40258 4687 ft 224 kts 322°
2026-05-04 18:26 50.06133 8.38771 5064 ft 240 kts 323°
2026-05-04 18:26 50.07521 8.37185 5461 ft 257 kts 323°
2026-05-04 18:27 50.08989 8.35479 5885 ft 272 kts 322°
2026-05-04 18:27 50.10524 8.33731 6481 ft 280 kts 328°
2026-05-04 18:27 50.12379 8.32842 7168 ft 286 kts 359°
2026-05-04 18:27 50.14330 8.33363 7967 ft 286 kts 16°
2026-05-04 18:28 50.16219 8.34285 8578 ft 293 kts 17°
2026-05-04 18:28 50.18180 8.35276 9226 ft 299 kts 17°
2026-05-04 18:28 50.20188 8.36271 9914 ft 304 kts 16°
2026-05-04 18:28 50.22198 8.37242 10594 ft 307 kts 16°
2026-05-04 18:29 50.24263 8.38225 11030 ft 320 kts 16°
2026-05-04 18:29 50.26436 8.39256 11364 ft 336 kts 16°
2026-05-04 18:29 50.28661 8.40639 11673 ft 352 kts 27°
2026-05-04 18:29 50.30753 8.42732 11986 ft 367 kts 38°
2026-05-04 18:30 50.34656 8.48103 13148 ft 378 kts 42°
2026-05-04 18:30 50.36612 8.50878 13772 ft 382 kts 42°
2026-05-04 18:30 50.38591 8.53665 14385 ft 385 kts 41°
2026-05-04 18:31 50.40590 8.56460 14968 ft 389 kts 41°
2026-05-04 18:31 50.42603 8.59267 15524 ft 393 kts 41°
2026-05-04 18:31 50.44640 8.62105 16084 ft 397 kts 40°
2026-05-04 18:31 50.46743 8.64921 16650 ft 400 kts 39°
2026-05-04 18:32 50.48900 8.67741 17176 ft 404 kts 40°